Theta_e
285 286 284 283 282 280 279 279 280 279 278 278 279 278 278 278 278 278 279 278 278 279
285 283 283 281 280 279 278 279 278 278 277 277 277 277 277 277 277 277 278 278 278 278
284 282 280 279 278 278 277 277 276 276 276 276 276 276 275 276 276 276 276 277 276 277
281 280 279 278 277 277 277 276 276 275 275 275 275 275 274 274 274 274 274 274 274 274
280 279 278 277 276 276 275 275 275 274 274 274 273 273 273 272 273 272 272 272 272 271
279 277 276 276 275 275 274 274 274 273 272 272 272 272 272 271 271 271 270 271 271 271
277 276 275 275 274 274 273 272 272 272 272 271 271 271 271 271 271 270 271 271 272 272
276 275 275 274 273 273 272 271 271 271 270 270 270 270 270 271 271 271 271 272 273 273
275 275 274 273 272 271 271 271 270 270 269 269 270 273 275 275 272 273 272 271 272 273
274 273 272 272 271 271 270 270 270 270 270 269 270 273 275 275 274 272 271 271 272 272
273 272 271 271 270 270 270 269 269 269 269 269 269 273 274 274 273 272 272 272 273 273
273 271 270 269 269 269 269 269 269 269 268 267 268 270 272 274 272 272 272 274 274 275
272 270 269 269 269 269 269 268 269 268 268 267 266 270 272 274 272 270 272 274 274 274
270 269 269 268 268 267 267 268 267 267 267 268 268 268 272 275 273 272 273 271 271 272
Wind_Speed
12 10 9 10 9 7 6 6 7 7 6 4 3 2 3 3 4 5 4 6 5 6
12 10 10 10 7 6 6 6 7 7 6 4 3 3 3 3 4 4 4 6 7 7
12 8 8 9 9 8 7 7 7 6 5 4 3 3 3 3 4 5 4 6 7 8
11 10 9 10 9 9 7 8 7 6 5 4 3 3 4 4 4 7 8 8 9 11
10 11 12 10 9 8 7 7 7 6 5 4 4 4 5 5 6 7 8 9 10 12
13 13 12 11 10 9 9 8 7 7 6 5 5 5 4 5 7 8 9 10 11 11
14 13 11 10 9 9 8 8 7 6 6 5 5 6 6 8 8 8 9 10 12 12
12 12 11 10 9 9 8 7 6 6 5 5 5 5 7 7 7 10 10 11 12 13
14 13 13 12 12 11 10 9 8 8 7 7 5 11 13 10 7 10 12 12 12 13
16 15 15 13 12 11 10 9 9 8 7 6 7 12 12 12 8 10 10 13 14 13
17 15 14 14 13 10 9 10 9 7 7 5 6 11 10 11 8 8 12 14 15 16
18 17 15 13 12 11 10 9 8 7 6 7 6 10 9 10 6 9 12 13 13 14
17 18 17 15 14 10 9 9 7 7 7 7 6 9 9 10 5 7 9 11 10 18
16 16 15 13 11 11 9 8 7 6 6 7 8 8 9 11 6 6 8 8 9 10
Wind_Direction
188 184 178 172 168 171 168 163 155 147 149 155 174 210 238 246 248 257 254 263 261 266
189 181 174 163 155 160 152 155 150 147 148 160 188 214 233 236 253 268 283 272 270 268
184 173 160 155 160 158 155 153 145 144 150 168 190 208 243 246 257 266 274 277 276 272
177 168 158 164 161 161 153 149 146 151 166 185 206 227 241 250 271 269 267 269 271 273
165 165 163 163 158 151 144 138 140 148 164 190 215 227 239 256 267 268 270 271 273 274
171 172 169 160 154 145 146 144 149 159 181 198 213 230 248 258 259 259 262 266 269 275
174 171 158 148 146 148 146 150 158 172 185 191 215 237 243 253 259 264 265 269 271 275
164 157 148 146 145 139 147 154 157 163 182 204 222 237 241 248 259 270 275 275 279 277
157 154 153 152 153 154 156 164 171 184 196 209 224 243 249 256 255 277 288 284 278 278
161 160 159 155 155 164 168 165 182 188 201 214 229 249 254 263 283 285 284 281 283 283
164 165 158 160 163 157 161 172 179 191 197 209 235 248 259 280 283 275 276 275 279 284
166 162 162 165 163 162 163 169 175 168 186 210 233 256 263 278 275 274 276 281 288 298
167 163 166 163 167 162 160 160 162 181 185 204 221 248 258 282 261 274 284 289 309 307
164 162 157 154 153 154 155 147 164 176 197 209 216 228 261 285 291 285 296 316 311 307